EW1689 Weather Reports


Display with metric or nautical units.
time (UTC)temp
F
wind
direction
speed
MPH
gust
MPH
rain 1hr
in
rain 24hr
in
rain mn
in
humidity
%
barometer
mb
20260508190016 90 0 2.0 4.0 0.00 0.00 0.00 16 1012.0
20260508185016 90 0 2.0 5.0 0.00 0.00 0.00 16 1012.1
20260508184016 89 0 2.0 6.0 0.00 0.00 0.00 17 1012.4
20260508183016 89 0 1.0 5.0 0.00 0.00 0.00 17 1012.5
20260508182015 88 0 1.0 5.0 0.00 0.00 0.00 18 1012.5
20260508181037 87 0 2.0 5.0 0.00 0.00 0.00 18 1012.5
20260508180016 86 0 2.0 7.0 0.00 0.00 0.00 18 1012.6
20260508175016 86 0 2.0 6.0 0.00 0.00 0.00 19 1012.8
20260508174016 86 0 2.0 5.0 0.00 0.00 0.00 19 1012.9
20260508173016 86 0 2.0 5.0 0.00 0.00 0.00 19 1012.9
20260508172015 85 0 2.0 6.0 0.00 0.00 0.00 19 1013.0
20260508171016 85 0 1.0 4.0 0.00 0.00 0.00 21 1013.1
20260508170016 85 0 1.0 5.0 0.00 0.00 0.00 19 1013.1
20260508165016 84 0 1.0 7.0 0.00 0.00 0.00 21 1013.1
20260508164016 83 0 1.0 4.0 0.00 0.00 0.00 20 1013.1
20260508163017 82 0 1.0 4.0 0.00 0.00 0.00 20 1013.0
20260508162018 82 0 2.0 4.0 0.00 0.00 0.00 20 1013.0
20260508161017 83 0 1.0 3.0 0.00 0.00 0.00 20 1013.0
20260508160017 82 0.0 2.0 0.00 0.00 0.00 21 1013.0
20260508155017 81 0 1.0 2.0 0.00 0.00 0.00 21 1012.8
20260508154038 80 0 1.0 4.0 0.00 0.00 0.00 20 1013.0
20260508153017 80 0 1.0 2.0 0.00 0.00 0.00 20 1013.0
20260508152017 80 0 1.0 3.0 0.00 0.00 0.00 20 1013.0
20260508151017 80 0 1.0 2.0 0.00 0.00 0.00 21 1013.1
20260508150017 79 0.0 2.0 0.00 0.00 0.00 22 1013.0
20260508145017 78 0 1.0 2.0 0.00 0.00 0.00 23 1013.0
20260508144017 78 0.0 2.0 0.00 0.00 0.00 22 1013.0
20260508143037 77 0.0 0.0 0.00 0.00 0.00 23 1013.0
20260508142037 77 0.0 0.0 0.00 0.00 0.00 25 1013.1
20260508141017 76 0.0 2.0 0.00 0.00 0.00 26 1013.0
20260508140017 74 0.0 0.0 0.00 0.00 0.00 27 1012.8
20260508135017 72 0.0 0.0 0.00 0.00 0.00 26 1012.5
20260508134017 71 0.0 0.0 0.00 0.00 0.00 27 1012.3
20260508133017 69 0.0 0.0 0.00 0.00 0.00 28 1012.1
20260508132017 69 0.0 0.0 0.00 0.00 0.00 29 1012.0
20260508131038 68 0.0 1.0 0.00 0.00 0.00 29 1011.9
20260508130017 68 0.0 0.0 0.00 0.00 0.00 29 1011.7
20260508125018 67 0.0 0.0 0.00 0.00 0.00 29 1011.6
20260508124017 67 0.0 1.0 0.00 0.00 0.00 29 1011.5
20260508123017 67 0.0 0.0 0.00 0.00 0.00 29 1011.3
20260508122017 67 0.0 0.0 0.00 0.00 0.00 28 1011.2
20260508121037 68 0.0 0.0 0.00 0.00 0.00 28 1011.3
20260508120037 68 0.0 0.0 0.00 0.00 0.00 28 1011.3
20260508115017 69 0.0 0.0 0.00 0.00 0.00 27 1011.5
20260508114016 69 0.0 1.0 0.00 0.00 0.00 28 1011.3
20260508113017 70 0.0 1.0 0.00 0.00 0.00 28 1011.2
20260508112017 70 0.0 3.0 0.00 0.00 0.00 28 1011.2
20260508111016 71 0.0 1.0 0.00 0.00 0.00 29 1011.3
20260508110017 71 0.0 2.0 0.00 0.00 0.00 28 1011.3
20260508105017 71 0.0 2.0 0.00 0.00 0.00 28 1011.2
20260508104016 72 0.0 2.0 0.00 0.00 0.00 28 1011.4
20260508103017 71 0 2.0 4.0 0.00 0.00 0.00 27 1011.2
20260508102017 72 0.0 2.0 0.00 0.00 0.00 27 1011.3
20260508101016 72 0 1.0 4.0 0.00 0.00 0.00 25 1011.2
20260508100017 72 0 1.0 4.0 0.00 0.00 0.00 23 1011.2
20260508095016 73 0.0 2.0 0.00 0.00 0.00 21 1011.1
20260508094017 73 0.0 3.0 0.00 0.00 0.00 20 1011.1
20260508093017 74 0.0 1.0 0.00 0.00 0.00 19 1011.0
20260508092016 75 0 1.0 3.0 0.00 0.00 0.00 19 1011.2
20260508091016 75 0.0 1.0 0.00 0.00 0.00 20 1011.3
20260508090036 76 0.0 0.0 0.00 0.00 0.00 20 1011.4
20260508085037 77 0 1.0 2.0 0.00 0.00 0.00 18 1011.5
20260508084016 77 0 2.0 5.0 0.00 0.00 0.00 18 1011.6
20260508083016 77 0 2.0 6.0 0.00 0.00 0.00 18 1011.7
20260508082016 77 0 1.0 2.0 0.00 0.00 0.00 20 1011.7
20260508081016 77 0.0 2.0 0.00 0.00 0.00 21 1011.7
20260508080016 78 0.0 2.0 0.00 0.00 0.00 20 1011.7
20260508075016 78 0.0 1.0 0.00 0.00 0.00 20 1011.7
20260508074017 78 0 1.0 3.0 0.00 0.00 0.00 20 1011.6
20260508073016 78 0.0 1.0 0.00 0.00 0.00 19 1011.6
20260508072017 78 0.0 0.0 0.00 0.00 0.00 18 1011.6
20260508071016 78 0.0 1.0 0.00 0.00 0.00 18 1011.6
20260508070016 79 0.0 0.0 0.00 0.00 0.00 16 1011.7
20260508065015 79 0.0 3.0 0.00 0.00 0.00 15 1011.6
20260508064036 79 0.0 1.0 0.00 0.00 0.00 14 1011.7
20260508063016 80 0.0 3.0 0.00 0.00 0.00 14 1011.8
20260508062017 81 0 1.0 3.0 0.00 0.00 0.00 14 1011.8
20260508061015 82 0.0 2.0 0.00 0.00 0.00 13 1011.6
20260508060016 82 0.0 2.0 0.00 0.00 0.00 13 1011.7
20260508055018 83 0 1.0 3.0 0.00 0.00 0.00 12 1011.7
20260508054018 83 0 1.0 3.0 0.00 0.00 0.00 12 1011.4
20260508053018 83 0 1.0 3.0 0.00 0.00 0.00 12 1011.3
20260508052017 83 0 2.0 6.0 0.00 0.00 0.00 12 1011.3
20260508051017 83 0 1.0 3.0 0.00 0.00 0.00 12 1011.3
20260508050017 83 0 1.0 5.0 0.00 0.00 0.00 12 1011.3
20260508045017 83 0 1.0 3.0 0.00 0.00 0.00 12 1011.2
20260508044037 83 0 1.0 4.0 0.00 0.00 0.00 12 1011.0
20260508043018 83 0 1.0 5.0 0.00 0.00 0.00 12 1010.9
20260508042017 82 0 1.0 2.0 0.00 0.00 0.00 13 1010.8
20260508041017 82 0 1.0 3.0 0.00 0.00 0.00 13 1010.7
20260508040037 82 0.0 2.0 0.00 0.00 0.00 13 1010.7
20260508035018 82 0.0 2.0 0.00 0.00 0.00 13 1010.5
20260508034017 82 0.0 3.0 0.00 0.00 0.00 13 1010.4
20260508033017 83 0 1.0 4.0 0.00 0.00 0.00 13 1010.2
20260508032037 83 0 1.0 2.0 0.00 0.00 0.00 13 1010.0
20260508031037 83 0 1.0 4.0 0.00 0.00 0.00 13 1009.8
20260508030017 84 0.0 2.0 0.00 0.00 0.00 13 1009.7
20260508025017 84 0.0 2.0 0.00 0.00 0.00 13 1009.6
20260508024017 85 0 1.0 4.0 0.00 0.00 0.00 12 1009.3
20260508023017 85 0 1.0 3.0 0.00 0.00 0.00 12 1009.1
20260508022037 86 0.0 2.0 0.00 0.00 0.00 12 1009.2
20260508021017 86 0 1.0 4.0 0.00 0.00 0.00 11 1008.9
20260508020017 87 0.0 2.0 0.00 0.00 0.00 11 1008.7
20260508015017 87 0 2.0 5.0 0.00 0.00 0.00 11 1008.6
20260508014017 88 0 1.0 6.0 0.00 0.00 0.00 10 1008.4
20260508013017 88 0 1.0 5.0 0.00 0.00 0.00 10 1008.3
20260508012017 88 0 1.0 5.0 0.00 0.00 0.00 10 1008.3
20260508011017 89 0 1.0 5.0 0.00 0.00 0.00 10 1008.4
20260508010016 89 0 2.0 7.0 0.00 0.00 0.00 9 1008.4
20260508005037 90 0 1.0 5.0 0.00 0.00 0.00 10 1008.3
20260508004037 90 0 3.0 7.0 0.00 0.00 0.00 9 1008.3
20260508003017 90 0 1.0 3.0 0.00 0.00 0.00 9 1008.2
20260508002017 90 0 2.0 10.0 0.00 0.00 0.00 9 1008.3
20260508001016 91 0 2.0 11.0 0.00 0.00 0.00 9 1008.4
20260508000016 91 0 4.0 10.0 0.00 0.00 0.00 9 1008.5
20260507235037 91 0 1.0 3.0 0.00 0.00 0.00 9 1008.6
20260507234016 91 203 1.0 5.0 0.00 0.00 0.00 8 1008.7
20260507233017 91 180 2.0 4.0 0.00 0.00 0.00 9 1008.6
20260507232017 91 203 3.0 9.0 0.00 0.00 0.00 9 1008.6
20260507231057 91 180 2.0 5.0 0.00 0.00 0.00 8 1008.8
20260507230016 92 180 3.0 8.0 0.00 0.00 0.00 8 1008.8
20260507225016 92 180 2.0 6.0 0.00 0.00 0.00 8 1009.0
20260507224016 93 68 3.0 6.0 0.00 0.00 0.00 8 1009.1
20260507223016 93 0 1.0 2.0 0.00 0.00 0.00 8 1009.2
20260507222016 92 0 3.0 8.0 0.00 0.00 0.00 9 1009.4
20260507221016 92 0 1.0 4.0 0.00 0.00 0.00 9 1009.5
20260507220036 92 0 2.0 5.0 0.00 0.00 0.00 8 1009.7
20260507215016 92 0 3.0 8.0 0.00 0.00 0.00 9 1009.9
20260507214016 93 0 1.0 3.0 0.00 0.00 0.00 9 1010.1
20260507213016 92 0 1.0 4.0 0.00 0.00 0.00 10 1010.3
20260507212016 91 0 2.0 4.0 0.00 0.00 0.00 8 1010.2
20260507211016 92 0 3.0 7.0 0.00 0.00 0.00 8 1010.5
20260507210016 94 0 1.0 2.0 0.00 0.00 0.00 8 1010.8
20260507205016 95 0 1.0 3.0 0.00 0.00 0.00 9 1011.0
20260507204016 94 0 1.0 3.0 0.00 0.00 0.00 9 1011.2
20260507203017 94 0 1.0 3.0 0.00 0.00 0.00 9 1011.4
20260507202016 92 0 1.0 3.0 0.00 0.00 0.00 10 1011.3
20260507201036 92 0 1.0 4.0 0.00 0.00 0.00 10 1011.4
20260507200016 92 0 2.0 5.0 0.00 0.00 0.00 11 1011.7
20260507195056 91 0 2.0 5.0 0.00 0.00 0.00 9 1011.6
20260507194016 91 0 1.0 3.0 0.00 0.00 0.00 9 1012.0
20260507193016 90 0 2.0 5.0 0.00 0.00 0.00 8 1012.0
20260507192017 89 0 2.0 6.0 0.00 0.00 0.00 9 1012.2
20260507191056 89 0 2.0 5.0 0.00 0.00 0.00 8 1012.4